Lexington Weather

Lexington, Massachusetts, USA

28°F
12/12/2019 4:22pm 
  • Lexington Conditions: Partly cloudy
  • Temperature: 27.7°F / -2.4°CColder 1.6°F than last hour.
  • Dew Point: 19.8°FDecreased 0.7°Fsince last hour.
  • Relative Humidity: 72%Increased 3.0% since last hour.
  • Wind: Wind from WSW WSW 1 mph, 10-min avg: 1 mph, gust: 2 mph
  • Barometer: 30.66 in Steady
  • Visibility: 10 miles
  • Snow Today: 0.0 in
  •   

Regional Weather Roundup
for Boston / Norton, MA

        
000
ASUS41 KBOX 112110
RWRBOX

REGIONAL WEATHER ROUNDUP
NATIONAL WEATHER SERVICE BOSTON/NORTON MA
400 PM EST WED DEC 11 2019

NOTE:  "FAIR" INDICATES FEW OR NO CLOUDS BELOW 12,000 FEET WITH NO 
SIGNIFICANT WEATHER AND/OR OBSTRUCTIONS TO VISIBILITY.

MAZALL-112200-
EASTERN MASSACHUSETTS
  
CITY           SKY/WX    TMP DP  RH WIND       PRES   REMARKS
BOSTON         FAIR      34  20  56 SW12      30.21R WCI  25          
BEVERLY        FAIR      31  24  75 W5        30.19R WCI  26          
LAWRENCE       FAIR      31  22  69 SW7       30.21R WCI  24          
BEDFORD        FAIR      31  21  66 SW6       30.20R WCI  25          
BLUE HILL        N/A     26  22  84 W12       30.16R WCI  16          
NORWOOD        FAIR      33  21  61 W6        30.21R WCI  28          
MARSHFIELD     FAIR      32  28  86 CALM      30.21R                  
PLYMOUTH       FAIR      30  26  85 CALM      30.21R                  
TAUNTON        FAIR      31  22  69 CALM      30.22R                  
NEW BEDFORD    FAIR      30  25  81 SW5       30.22R WCI  25          
$$

MAZALL-112200-
CAPE COD AND THE ISLANDS
  
CITY           SKY/WX    TMP DP  RH WIND       PRES   REMARKS
FALMOUTH       PTCLDY    30  25  80 W5        30.20S WCI  25          
HYANNIS        FAIR      32  26  78 W7        30.21R WCI  26          
CHATHAM        MOCLDY    32  30  92 SW5       30.22R WCI  27          
PROVINCETOWN   FAIR      31  27  85 W8        30.21R WCI  23          
NANTUCKET      MOCLDY    33  29  85 W9        30.22R WCI  25          
MARTHAS VNYRD  FAIR      31  25  78 CALM      30.22R                  
$$
 
MAZALL-112200-
CENTRAL AND WESTERN MASSACHUSETTS
  
CITY           SKY/WX    TMP DP  RH WIND       PRES   REMARKS
WORCESTER      FAIR      26  18  71 SW12      30.17R WCI  16          
FITCHBURG      FAIR      28  22  78 S5        30.20R WCI  23          
ORANGE         FAIR      32  14  47 SW5       30.19R WCI  27          
SPRINGFIELD    PTCLDY    30  20  67 S9        30.21R WCI  22          
WESTFIELD      FAIR      32  19  58 SW8       30.22R WCI  25          
NORTH ADAMS    FAIR      30  13  49 W5        30.17R WCI  25          
PITTSFIELD     FAIR      28  19  69 SW5       30.14R WCI  23          
$$
 
RIZALL-112200-
RHODE ISLAND
  
CITY           SKY/WX    TMP DP  RH WIND       PRES   REMARKS
PROVIDENCE     FAIR      32  21  64 W6        30.23R WCI  26          
NEWPORT        FAIR      32  20  61 W7        30.23R WCI  26          
BLOCK ISLAND   CLOUDY    29  22  75 NW5       30.25R WCI  24          
SMITHFIELD     FAIR      29  22  75 W6        30.21R WCI  23          
WESTERLY       FAIR      34  20  56 W5        30.26R WCI  30          
$$
 
CTZALL-112200-
CONNECTICUT
  
CITY           SKY/WX    TMP DP  RH WIND       PRES   REMARKS
BRADLEY INTL   FAIR      31  21  66 S8        30.23R WCI  23          
HARTFORD       FAIR      34  23  64 W6        30.24R WCI  29          
BRIDGEPORT     MOCLDY    36  29  75 SW7       30.26R WCI  30          
DANBURY        FAIR      31  26  82 SW5       30.24R WCI  26          
GROTON         FAIR      33  21  61 W5        30.25R WCI  29          
NEW HAVEN      FAIR      37  27  67 SW8       30.26R WCI  31          
CHESTER        FAIR      32  25  74 CALM      30.23R                  
MERIDEN        FAIR      32  24  72 SW3       30.25R                  
WILLIMANTIC    FAIR      30  21  69 SW3       30.24R                  
OXFORD         MOCLDY    31  26  82 W3        30.23R                  
$$

MEZ002-015-021-024-NHZ003-005-008-011-012-014-VTZ005-008-112200-
NORTHERN NEW ENGLAND
  
CITY           SKY/WX    TMP DP  RH WIND       PRES   REMARKS
PORTLAND ME    FAIR      31  17  56 SE6       30.17F WCI  25          
BANGOR ME      FAIR      24  11  57 CALM      30.17S                  
CONCORD NH     FAIR      32  10  40 SW7       30.15R WCI  26          
MANCHESTER NH  FAIR      33  18  53 SW5       30.16R WCI  29          
NASHUA NH      FAIR      30  24  78 S3        30.20R                  
PORTSMOUTH NH  PTCLDY    30  19  62 SW3       30.17R                  
JAFFREY NH     FAIR      28  14  55 W6        30.14R WCI  22          
KEENE NH       FAIR      31  14  49 VRB6      30.19R WCI  25          
BURLINGTON VT  MOCLDY    30  12  47 S16       30.13R WCI  19          
MT. WASHINGTON PTCLDY     3  -6  66 SW22G29     N/A  WCI -19          
$$

NYZ052-076-112200-
EASTERN NEW YORK
  
CITY           SKY/WX    TMP DP  RH WIND       PRES   REMARKS
ALBANY         FAIR      34  14  43 S6        30.21R WCI  29          
NEW YORK CITY  MOCLDY    38  25  59 SW16G23   30.27R WCI  29          
$$
 
ANZALL-112200-
MARINE OBSERVATIONS
  
STATION/POSITION TIME  TEMP    WIND        PRES    VSBY  WAVE
                       AIR SEA DIR/SP/G                  HT/PER
                 (UTC) (F)     (DEG/KT/KT) (MB)    (MI)  (FT/S)
BOSTON BUOY      NOT AVBL
BUZZARDS BAY     2000   32     310/ 14/ 16 1023.5R
NANTUCKET SOUND  NOT AVBL
MASS BAY-STELLWA 2004   32 46  300/  8/ 12 1020.9R  1 7/8  3/11
ISLE OF SHOALS   2000   32     270/  4/  6 1021.6R
S OF BLOCK IS    2100      53                N/A           5/ 9
$$

......................KEY.........................
  SKY/WX - SKY CONDITION/PRESENT WEATHER
  TMP    - TEMPERATURE IN FAHRENHEIT
  DWPT   - DEWPOINT IN FAHRENHEIT
  RH     - RELATIVE HUMIDITY IN PERCENT
  WIND   - DIRECTION AND SPEED IN MPH
  PRES   - MEAN SEA LEVEL PRESSURE IN INCHES OF HG
  WCI    - WIND CHILL INDEX
  VSB    - VISIBILITY IN MILES
  HX     - HEAT INDEX
  TC     - TEMPERATURE IN CELSIUS
  VRB    - VARIABLE WIND DIRECTION
  N/A    - NOT AVAILABLE
  
      

Other recent Regional Weather Roundups

Thu Dec 12, 4:01pm

Thu Dec 12, 3:10pm

Thu Dec 12, 3:00pm

Thu Dec 12, 2:10pm

Thu Dec 12, 2:01pm

Thu Dec 12, 1:10pm

Thu Dec 12, 1:00pm

Thu Dec 12, 12:10pm

Thu Dec 12, 12:00pm

Thu Dec 12, 11:10am

Thu Dec 12, 11:00am

Thu Dec 12, 10:10am

Thu Dec 12, 8:10am

Thu Dec 12, 8:00am

Thu Dec 12, 7:10am

Thu Dec 12, 7:00am

Thu Dec 12, 6:10am

Thu Dec 12, 6:00am

Thu Dec 12, 5:10am

Thu Dec 12, 5:00am

Thu Dec 12, 4:10am

Thu Dec 12, 4:00am

Thu Dec 12, 3:10am

Thu Dec 12, 3:00am

Thu Dec 12, 2:10am

Thu Dec 12, 2:00am

Thu Dec 12, 1:10am

Thu Dec 12, 1:00am

Thu Dec 12, 12:10am

Thu Dec 12, 12:00am

Wed Dec 11, 11:10pm

Wed Dec 11, 11:00pm

Wed Dec 11, 10:10pm

Wed Dec 11, 10:00pm

Wed Dec 11, 9:10pm

Wed Dec 11, 9:00pm

Wed Dec 11, 8:10pm

Wed Dec 11, 8:00pm

Wed Dec 11, 7:10pm

Wed Dec 11, 7:00pm

Wed Dec 11, 6:10pm

Wed Dec 11, 6:00pm

Wed Dec 11, 5:10pm

Wed Dec 11, 5:01pm

Wed Dec 11, 4:00pm

Wed Dec 11, 3:10pm

Wed Dec 11, 3:01pm

Wed Dec 11, 2:10pm

Wed Dec 11, 2:00pm

Wed Dec 11, 1:10pm

Wed Dec 11, 1:00pm

Wed Dec 11, 12:10pm

Wed Dec 11, 12:00pm

Wed Dec 11, 11:10am

Wed Dec 11, 11:00am

Wed Dec 11, 10:10am

Wed Dec 11, 10:00am

Wed Dec 11, 9:10am

Wed Dec 11, 9:00am

Wed Dec 11, 8:10am

Wed Dec 11, 8:00am

Wed Dec 11, 7:10am

Wed Dec 11, 7:00am

Wed Dec 11, 6:10am

Wed Dec 11, 6:00am

Wed Dec 11, 5:10am

Wed Dec 11, 5:00am

Wed Dec 11, 4:10am

Wed Dec 11, 4:00am

Wed Dec 11, 3:10am

Wed Dec 11, 3:01am

Wed Dec 11, 2:10am

Wed Dec 11, 2:01am

Wed Dec 11, 1:10am

Wed Dec 11, 1:00am

Wed Dec 11, 12:10am

Wed Dec 11, 12:00am

Tue Dec 10, 11:10pm

Tue Dec 10, 11:00pm

Tue Dec 10, 10:10pm

Tue Dec 10, 10:00pm

Tue Dec 10, 9:10pm

Tue Dec 10, 9:01pm

Tue Dec 10, 8:10pm

Tue Dec 10, 8:00pm

Tue Dec 10, 7:10pm

Tue Dec 10, 7:01pm

Tue Dec 10, 6:10pm

Tue Dec 10, 6:01pm

Tue Dec 10, 5:10pm

Tue Dec 10, 5:00pm

Tue Dec 10, 4:10pm

Tue Dec 10, 4:01pm

Tue Dec 10, 3:10pm

Tue Dec 10, 3:01pm

Tue Dec 10, 2:10pm

Tue Dec 10, 2:01pm

Tue Dec 10, 1:10pm

Tue Dec 10, 1:00pm

Tue Dec 10, 12:10pm

Tue Dec 10, 12:00pm

Tue Dec 10, 11:10am

Tue Dec 10, 11:00am

Tue Dec 10, 10:10am

Tue Dec 10, 10:00am

Tue Dec 10, 9:10am

Tue Dec 10, 9:01am

Tue Dec 10, 8:10am

Tue Dec 10, 8:00am

Tue Dec 10, 7:10am

Tue Dec 10, 7:00am

Tue Dec 10, 6:10am

Tue Dec 10, 6:00am

Tue Dec 10, 5:10am

Tue Dec 10, 5:00am

Tue Dec 10, 4:10am

Tue Dec 10, 4:00am

Tue Dec 10, 3:10am

Tue Dec 10, 3:00am

Tue Dec 10, 2:10am

Tue Dec 10, 2:01am

Tue Dec 10, 1:10am

Tue Dec 10, 1:00am

Tue Dec 10, 12:10am

Tue Dec 10, 12:01am

Mon Dec 9, 11:10pm

Mon Dec 9, 11:01pm

Mon Dec 9, 10:10pm

Mon Dec 9, 10:00pm

Mon Dec 9, 9:10pm

Mon Dec 9, 9:01pm

Mon Dec 9, 8:10pm

Mon Dec 9, 8:01pm

Mon Dec 9, 7:10pm

Mon Dec 9, 7:00pm

Mon Dec 9, 6:10pm

Mon Dec 9, 6:00pm

Mon Dec 9, 5:10pm

Mon Dec 9, 5:01pm

Mon Dec 9, 4:10pm

Meta data:

ID: 2281c767-f097-415e-9c23-ab38b11fd3e6
Link: https://api.weather.gov/products/2281c767-f097-415e-9c23-ab38b11fd3e6